Погода в Иванихе

Россия / Саратовская область     51°54′50″N   50°31′17″E
темп.,
°C
ветер,
м/с
пор.,
м/с
влажн.,
%
обл.,
%
осадки,
мм/ч
давл.,
гПа
погр.,
м
26 января, вт
вт2601:00−2ю71293100 0.0 1030573
04:00−2ю71194100 0.0 1029476
07:00−4ююв61095100 0.0 1029377
10:00−5ююв71297100 0.0 1029366
13:00−5ююв71394100 0.0 1029365
16:00−5ююв61193100 0.0 1028351
19:00−5ююв71494100 0.0 1029355
22:00−4ю71494100 0.0 1029398
27 января, ср
ср2701:00−5ю61295100 0.0 1029339
04:00−6ююв61295100 0.0 1029326
07:00−7ююв61195100 0.0 1028274
10:00−8ююв7149599 0.0 1028283
13:00−6ююв71292100 0.0 1028348
16:00−6ююв71392100 0.0 1027340
19:00−6ююв61394100 0.0 1027311
22:00−7ююв71393100 0.0 1026297
28 января, чт
чт2801:00−8ююв71289100 0.0 1026265
04:00−9ююв61191100 0.0 1025252
07:00−9ююв61193100 0.0 1023247
10:00−9ююв71193100 0.0 1023260
13:00−7ююв71292100 0.0 1022295
16:00−7юв61193100 0.0 1020282
19:00−7юв61293100 0.0 1020291
22:00−6юв71394100 0.0 1018288
29 января, пт
пт2901:00−6юв61093100 0.0 1017267
04:00−7юв61193100 0.0 1014314
07:00−5вюв61392100 0.0 1012388
10:00−4юв71388100 0.0 1010446
13:00−2юв71293100 0.4 1007628
16:00−1юв71297100 1.9 1003703
19:000ююв61098100 2.8 1001587
22:000юз5898100 3.7 1001418
30 января, сб
сб3001:00−2зюз6109693 0.5 1003436
04:00−5юз6119596 0.6 1007359
07:00−8ююз6109680 0.0 1009197
10:00−7ююз489783 0.0 1011167
13:00−4ю4796100 0.0 1010226
16:00−2ююз5798100 0.0 1010365
19:000ю5897100 0.0 1011391
22:00−1ююз4795100 0.2 1011253